Weather Roundup
Issued by NWS Chicago, IL

Home | Current Version | Previous Version | Text Only | Print | Product List | Glossary On
Versions: 1 2 3 4 5 6 7 8 9 10 11 12 13 14 15 16 17 18 19 20 21 22 23 24 25 26 27 28 29 30 31 32 33 34 35 36 37 38 39 40 41 42 43 44 45 46 47 48 49 50
000
NZUS59 KLOT 310202
HRRLOT

CHICAGO AREA WEATHER ROUNDUP
NATIONAL WEATHER SERVICE CHICAGO/ROMEOVILLE IL
900 PM CDT THU JUL 30 2015

NOTE: "FAIR" INDICATES FEW OR NO CLOUDS BELOW 12,000 FEET WITH NO
SIGNIFICANT WEATHER AND/OR OBSTRUCTIONS TO VISIBILITY.

* THESE STATIONS ARE NOT UNDER NWS QUALITY CONTROL. THEY ALSO MAY NOT
  REPORT WEATHER SUCH AS PRECIPITATION OR FOG.

ILZ005-006-012>014-019>023-310300-
NORTHEAST ILLINOIS

CITY           SKY/WX    TMP DP  RH WIND       PRES   REMARKS
OHARE          CLEAR     80  59  48 W8        29.99S HX  81
MIDWAY         CLEAR     83  58  42 W7        29.99S HX  83
AURORA         CLEAR     73  62  68 SW7       30.02S
WAUKEGAN       CLEAR     75  57  53 SW3       29.98R
DUPAGE AIRPORT CLEAR     76  61  59 W7        30.00S
WHEELING       CLEAR     81  56  42 W6        30.00S HX  81
NORTHERLY IS     N/A     82  56  40 W10         N/A  HX  82
$$

WIZ051-052-058>065-066-070>072-310300-
SOUTHEAST WISCONSIN

CITY           SKY/WX    TMP DP  RH WIND       PRES   REMARKS
MILWAUKEE      CLEAR     81  52  36 W7        29.97S HX  80
KENOSHA*       CLEAR     69  56  62 W6        29.98S
RACINE*        CLEAR     77  54  44 CALM      29.99S
WAUKESHA       CLEAR     73  54  49 W5        29.99S
$$

INZ001>003-010>013-019-020-310300-
NORTHWEST INDIANA

CITY           SKY/WX    TMP DP  RH WIND       PRES   REMARKS
GARY*          CLEAR     81  59  47 W12       30.01R HX  81
MICHIGAN CITY* NOT AVBL
RENSSELAER*    NOT AVBL
$$

LMZ740>746-310300-
SOUTHERN LAKE MICHIGAN

STATION/POSITION TIME  SKY/WX   TEMP WIND        PRES    VSBY
                                AIR  DIR/SP/G
                 (UTC)          (F)  (DEG/KT/KT) (MB)    (MI)
HARRISON CRIB    0100            84  280/ 15/ 20   N/A
BURNHAM HARBOR   0100            84  280/  9/ 14   N/A
CALUMET HARBOR   0100            83  270/  5/ 10   N/A
BURNS HARBOR     0100            80  310/  5/  8 1016.3R
MICHIGAN CITY    0100            80  210/  5/  5   N/A
$$

ABBREVIATIONS USED IN REMARKS
   TC - TEMPERATURE IN CELSIUS
  WCI - WIND CHILL INDEX
   HX - HEAT INDEX
  VSB - VISIBILITY
$$


USA.gov is the U.S. government's official web portal to all federal, state and local government web resources and services.